This is the latest recevied weather packets stored in our database for station/object WX4SGA. If no packets are shown the sender has not sent any weather packets the latest 10 day(s).
| Time | Temp. | Humidity | Pressure | Rain* | Wind** | Luminosity | Snow |
|---|---|---|---|---|---|---|---|
| 1788360798 | 30° C | 78% | 1019.3 hPa | 0 mm | - | 598 W/m² | - |
| 1788360494 | 30° C | 76% | 1019.3 hPa | 0 mm | - | 559 W/m² | - |
| 1788360189 | 30° C | 79% | 1019.3 hPa | 0 mm | - | 548 W/m² | - |
| 1788359884 | 30° C | 77% | 1019 hPa | 0 mm | - | 550 W/m² | - |
| 1788359579 | 29.44° C | 82% | 1019.3 hPa | 0 mm | - | 501 W/m² | - |
| 1788359275 | 28.89° C | 81% | 1019.3 hPa | 0 mm | - | 481 W/m² | - |
| 1788358970 | 28.89° C | 82% | 1019.3 hPa | 0 mm | - | 464 W/m² | - |
| 1788358670 | 28.89° C | 80% | 1019.3 hPa | 0 mm | - | 444 W/m² | - |
| 1788358366 | 28.33° C | 83% | 1019 hPa | 0 mm | - | 415 W/m² | - |
| 1788358060 | 28.33° C | 84% | 1019.3 hPa | 0 mm | - | 416 W/m² | - |
| 1788357755 | 28.33° C | 86% | 1019.3 hPa | 0 mm | - | 382 W/m² | - |
| 1788357454 | 28.33° C | 87% | 1019.3 hPa | 0 mm | - | 228 W/m² | - |
| 1788357150 | 28.89° C | 84% | 1019.3 hPa | 0 mm | - | 351 W/m² | - |
| 1788356850 | 27.78° C | 88% | 1019.3 hPa | 0 mm | - | 363 W/m² | - |
| 1788356545 | 27.78° C | 89% | 1019.3 hPa | 0 mm | - | 319 W/m² | - |
| 1788356241 | 27.78° C | 90% | 1019.3 hPa | 0 mm | - | 107 W/m² | - |
| 1788355940 | 27.78° C | 89% | 1019.3 hPa | 0 mm | - | 75 W/m² | - |
| 1788355635 | 27.22° C | 92% | 1019.3 hPa | 0 mm | - | 170 W/m² | - |
| 1788355331 | 27.22° C | 93% | 1019.3 hPa | 0 mm | - | 183 W/m² | - |
| 1788355026 | 26.67° C | 96% | 1019.3 hPa | 0 mm | - | 183 W/m² | - |
| 1788354722 | 26.11° C | 96% | 1019 hPa | 0 mm | - | 161 W/m² | - |
| 1788354417 | 26.11° C | 97% | 1019.3 hPa | 0 mm | - | 146 W/m² | - |
| 1788354113 | 26.11° C | 98% | 1019.3 hPa | 0 mm | - | 72 W/m² | - |
| 1788353803 | 25.56° C | 99% | 1019 hPa | 0 mm | - | 76 W/m² | - |
| 1788353498 | 25.56° C | 99% | 1019.3 hPa | 0 mm | - | 90 W/m² | - |
* Rain latest hour (hover to see other rain measurements)
** Current wind speed in m/s (hover to see current wind gust speed)